Location: Izdebno
(52.6670°N, 16.2170°E)
Time: 05:55:14
(UTC+02:00)

Vanguard 1 - Pass Details

Date: 02 March 2024
Orbit: 653 x 3825 km, 34.2° (Epoch: 22 April)

Event Time Altitude Azimuth Distance (km) Brightness Sun altitude
Rises 22:25:34 0° 264° (W) 5,960 14.4 -39.6°
Reaches altitude 10° 22:29:27 10° 256° (WSW) 5,345 13.9 -39.9°
Enters shadow 22:41:41 34° 211° (SSW) 4,591 13.1 -40.9°
